Location: Unspecified
(0.0000°N, 0.0000°E)
Time: 03:17:03
(UTC+02:00)

AO-40 - Visible Passes

Search period start: 26 April 2015 00:00
Search period end: 06 May 2015 00:00
Orbit: 1042 x 58779 km, 9.2° (Epoch: 19 April)

Date Brightness Start Highest point End Pass type
(mag) Time Alt. Az. Time Alt. Az. Time Alt. Az.
26 Apr ? 06:14:06 35° WSW 06:19:42 64° SSE 20:29:46 10° W visible
27 Apr ? 00:54:26 10° W 00:57:52 17° W 00:57:52 17° W visible
30 Apr ? 05:47:54 47° SW 05:51:31 62° SSE 20:23:04 10° W visible
01 May ? 00:24:43 10° W 00:31:43 24° W 00:31:43 24° W visible
04 May ? 05:21:41 56° SSW 05:23:25 60° S 20:17:02 10° W visible
04 May ? 23:54:25 10° W 00:05:33 33° W 00:05:33 33° W visible
